Location: Pedholt
(56.0260°N, 10.2097°E)
Time: 21:12:29
(UTC+00:00)

Tiros 1 - Pass Details

Date: 09 August 2021
Orbit: 630 x 663 km, 48.4° (Epoch: 19 September)

Event Time Altitude Azimuth Distance (km) Brightness Sun altitude
Rises 19:48:42 0° 269° (W) 2,985 11.5 -5.4°
Reaches altitude 10° 19:52:01 10° 246° (WSW) 2,063 10.1 -5.7°
Maximum altitude 19:54:33 14° 214° (SSW) 1,774 9.4 -6.0°
Drops below altitude 10° 19:57:05 10° 181° (S) 2,047 9.4 -6.3°
Enters shadow 19:59:16 - 163° (SSE) 2,605 9.7 -6.5°
Sets 20:00:22 0° 157° (SSE) 2,945 - -6.6°
